Location: Newark
(41.0400°S, 62.7845°W)
Time: 09:07:03
(UTC+00:00)

Vanguard 2 Rocket - Pass Details

Date: 07 December 2021
Orbit: 553 x 3325 km, 32.9° (Epoch: 24 January)

Event Time Altitude Azimuth Distance (km) Brightness Sun altitude
Rises 11:47:15 0° 271° (W) 7,047 10.9 34.0°
Reaches altitude 10° 11:52:31 10° 274° (W) 5,754 10.6 35.0°
Maximum altitude 12:08:07 55° 345° (NNW) 2,335 9.4 38.0°
Drops below altitude 10° 12:17:09 10° 60° (ENE) 3,462 10.8 39.7°
Sets 12:19:32 0° 64° (ENE) 4,151 11.0 40.1°
